Location: Poughquag
(41.6090°N, 73.6820°W)
Time: 20:03:10
(UTC-04:00)

CUBESAT XI-V - Pass Details

Date: 20 April 2024
Orbit: 657 x 680 km, 98.2° (Epoch: 23 May)

Event Time Altitude Azimuth Distance (km) Brightness Sun altitude
Exits shadow 01:28:28 12° 61° (ENE) 1,979 ? -36.1°
Maximum altitude 01:28:28 12° 61° (ENE) 1,979 ? -36.1°
Drops below altitude 10° 01:30:15 10° 38° (NE) 2,121 ? -36.0°
Sets 01:33:50 0° 8° (N) 3,036 ? -35.9°
